Pascagoula, MS

2:24 AM CST on January 24, 2018 (GMT -0600)
Lott International

Weather History for KPQL - November, 2012

Change the Weather History Date:

Sunday, November 11, 2012

  Actual Average Record
Temperature  
Mean Temperature 72 °F -  
Max Temperature 79 °F 70 °F 85 °F (1975)
Min Temperature 64 °F 50 °F 30 °F (1991)
Cooling Degree Days 6    
Growing Degree Days 22 (Base 50)    
Moisture  
Dew Point 60 °F    
Average Humidity 68    
Maximum Humidity 84    
Minimum Humidity 45    
Precipitation  
Precipitation 0.00 in - - ()
Sea Level Pressure  
Sea Level Pressure 30.19 in    
Wind  
Wind Speed 11 mph (SE)    
Max Wind Speed 17 mph    
Max Gust Speed 29 mph    
Visibility 10 miles    
Events Rain    
Averages and records for this station are not official NWS values.
T = Trace of Precipitation, MM = Missing Value Source: NWS Daily Summary

Daily Weather History Graph

Daily Weather History Graph

Search for Another Location

Airport or City:

Trip Planner

Search our weather history database for the weather conditions in past years. The results will help you decide how hot, cold, wet, or windy it might be!

Date:

Astronomy

Nov. 11, 2012 Rise Set
Actual Time 6:17 AM CST 4:58 PM CST
Civil Twilight 5:51 AM CST 5:24 PM CST
Nautical Twilight 5:22 AM CST 5:53 PM CST
Astronomical Twilight 4:54 AM CST 6:21 PM CST
Moon 3:39 AM CST (11/11) 3:15 PM CST (11/11)
Length of Visible Light 11h 32m
Length of Day
10h 41m
Waning Crescent, 7% of the Moon is Illuminated
Nov 11
Waning Crescent
Nov 13
New
Nov 20
First Quarter
Nov 28
Full
Dec 6
Last Quarter

Hourly Weather History & Observations

Time (CST) Temp. Dew Point Humidity Pressure Visibility Wind Dir Wind Speed Gust Speed Precip Events Conditions
12:53 AM 64.9 °F 60.1 °F 84% 30.20 in 10.0 mi SE 6.9 mph - N/A   Clear
1:53 AM 68.0 °F 57.9 °F 70% 30.18 in 10.0 mi SE 9.2 mph - N/A   Overcast
2:53 AM 69.1 °F 57.0 °F 65% 30.17 in 10.0 mi SE 15.0 mph 23.0 mph 0.00 in Rain Light Rain
3:53 AM 69.1 °F 57.0 °F 65% 30.19 in 10.0 mi SE 9.2 mph - 0.00 in   Overcast
4:53 AM 68.0 °F 57.0 °F 68% 30.18 in 10.0 mi SE 9.2 mph - N/A   Partly Cloudy
5:53 AM 68.0 °F 59.0 °F 73% 30.19 in 10.0 mi SE 5.8 mph - N/A   Overcast
6:53 AM 70.0 °F 59.0 °F 68% 30.20 in 10.0 mi SE 5.8 mph - N/A   Overcast
8:53 AM 73.0 °F 59.0 °F 61% 30.22 in 10.0 mi SE 13.8 mph 20.7 mph 0.00 in   Overcast
9:53 AM 77.0 °F 60.1 °F 56% 30.23 in 10.0 mi SE 17.3 mph 27.6 mph 0.00 in Rain Light Rain
11:53 AM 79.0 °F 55.9 °F 45% 30.20 in 10.0 mi SE 15.0 mph 25.3 mph 0.00 in Rain Light Rain
12:53 PM 78.1 °F 60.1 °F 54% 30.18 in 10.0 mi SE 17.3 mph 24.2 mph 0.00 in Rain Light Rain
1:53 PM 75.0 °F 62.1 °F 64% 30.17 in 10.0 mi ESE 16.1 mph 24.2 mph 0.00 in Rain Light Rain
2:53 PM 75.9 °F 61.0 °F 60% 30.17 in 10.0 mi ESE 16.1 mph 28.8 mph 0.00 in Rain Light Rain
3:53 PM 73.0 °F 62.1 °F 68% 30.17 in 10.0 mi SE 12.7 mph 19.6 mph 0.00 in Rain Light Rain
4:53 PM 71.1 °F 62.1 °F 73% 30.17 in 10.0 mi SE 11.5 mph - 0.00 in   Clear
5:53 PM 70.0 °F 61.0 °F 73% 30.18 in 10.0 mi SE 10.4 mph - 0.00 in Rain Light Rain
7:53 PM 69.1 °F 62.1 °F 78% 30.19 in 10.0 mi ESE 8.1 mph - 0.00 in   Scattered Clouds
8:53 PM 70.0 °F 62.1 °F 76% 30.19 in 10.0 mi SE 11.5 mph 18.4 mph 0.00 in   Clear
9:53 PM 70.0 °F 62.1 °F 76% 30.19 in 10.0 mi SE 9.2 mph - 0.00 in   Mostly Cloudy
10:53 PM 70.0 °F 63.0 °F 78% 30.17 in 10.0 mi SE 11.5 mph 19.6 mph 0.00 in Rain Light Rain
11:53 PM 70.0 °F 63.0 °F 78% 30.15 in 10.0 mi SE 13.8 mph - 0.00 in Rain Light Rain